Location: Karcze
(52.0945°N, 22.4786°E)
Time: 07:37:13
(UTC+00:00)

Transit 2A Rocket - Pass Details

Date: 02 August 2021
Orbit: 586 x 917 km, 66.7° (Epoch: 24 September)

Event Time Altitude Azimuth Distance (km) Brightness Sun altitude
Rises 21:46:39 0° 315° (NW) 3,274 9.2 -19.6°
Reaches altitude 10° 21:49:18 10° 303° (WNW) 2,396 8.2 -19.6°
Maximum altitude 21:53:54 27° 247° (WSW) 1,573 6.5 -19.8°
Enters shadow 21:55:44 23° 218° (SW) 1,759 6.5 -19.8°
Drops below altitude 10° 21:58:44 10° 192° (SSW) 2,538 - -19.9°
Sets 22:01:38 0° 181° (S) 3,505 - -20.0°
